Weather History for KWST - November, 2012

Change the Weather History Date:

Friday, November 16, 2012

  Actual Average (KGON) Record (KGON)
Temperature  
Mean Temperature 38 °F -  
Max Temperature 48 °F 51 °F 65 °F (1989)
Min Temperature 28 °F 32 °F 19 °F (1967)
Degree Days  
Heating Degree Days 27    
Moisture  
Dew Point 28 °F    
Average Humidity 68    
Maximum Humidity 89    
Minimum Humidity 42    
Precipitation  
Precipitation 0.00 in - - ()
Sea Level Pressure  
Sea Level Pressure 30.32 in    
Wind  
Wind Speed 4 mph (North)    
Max Wind Speed 7 mph    
Max Gust Speed -    
Visibility 10 miles    
Events      
Averages and records for this station are not official NWS values.
T = Trace of Precipitation, MM = Missing Value Source: NWS Daily Summary

Daily Weather History Graph

Daily Weather History Graph

Search for Another Location

Airport or City:

Trip Planner

Search our weather history database for the weather conditions in past years. The results will help you decide how hot, cold, wet, or windy it might be!

Date:

Astronomy

Nov. 16, 2012 Rise Set
Actual Time 6:37 AM EST 4:26 PM EST
Civil Twilight 6:07 AM EST 4:56 PM EST
Nautical Twilight 5:33 AM EST 5:29 PM EST
Astronomical Twilight 5:01 AM EST 6:02 PM EST
Moon 9:29 AM EST (11/16) 7:22 PM EST (11/16)
Length of Visible Light 10h 48m
Length of Day
9h 49m
Waxing Crescent, 11% of the Moon is Illuminated
Nov 16
Waxing Crescent
Nov 20
First Quarter
Nov 28
Full
Dec 6
Last Quarter
Dec 13
New

Hourly Weather History & Observations

Time (EST) Temp. Windchill Dew Point Humidity Pressure Visibility Wind Dir Wind Speed Gust Speed Precip Events Conditions
12:53 AM 37.0 °F 33.3 °F 30.0 °F 76% 30.29 in 10.0 mi NNW 4.6 mph - N/A   Overcast
1:53 AM 37.0 °F 32.4 °F 28.9 °F 73% 30.28 in 10.0 mi North 5.8 mph - N/A   Overcast
2:26 AM 37.4 °F 33.8 °F 28.4 °F 70% 30.29 in 10.0 mi North 4.6 mph - N/A   Partly Cloudy
2:53 AM 37.0 °F 31.6 °F 28.9 °F 73% 30.28 in 10.0 mi North 6.9 mph - N/A   Clear
3:53 AM 37.0 °F 32.4 °F 28.9 °F 73% 30.29 in 10.0 mi North 5.8 mph - N/A   Clear
4:53 AM 36.0 °F 32.1 °F 28.9 °F 76% 30.29 in 10.0 mi North 4.6 mph - N/A   Clear
5:53 AM 36.0 °F 33.3 °F 28.9 °F 76% 30.29 in 10.0 mi NNE 3.5 mph - N/A   Clear
6:53 AM 35.1 °F - 30.0 °F 82% 30.31 in 10.0 mi Calm Calm - N/A   Clear
7:53 AM 39.0 °F 34.8 °F 30.0 °F 70% 30.32 in 10.0 mi North 5.8 mph - N/A   Clear
8:53 AM 42.1 °F 38.4 °F 30.9 °F 65% 30.32 in 10.0 mi NNE 5.8 mph - N/A   Clear
9:53 AM 44.1 °F 41.5 °F 33.1 °F 65% 30.32 in 10.0 mi NNE 4.6 mph - N/A   Clear
10:53 AM 46.0 °F 43.1 °F 32.0 °F 58% 30.32 in 10.0 mi ENE 5.8 mph - N/A   Clear
11:53 AM 48.9 °F - 30.0 °F 48% 30.31 in 10.0 mi NNW 6.9 mph - N/A   Clear
12:53 PM 48.0 °F - 28.0 °F 46% 30.29 in 10.0 mi Calm Calm - N/A   Clear
1:53 PM 48.0 °F - 26.1 °F 42% 30.29 in 10.0 mi North 4.6 mph - N/A   Clear
2:53 PM 46.9 °F - 27.0 °F 46% 30.29 in 10.0 mi North 4.6 mph - N/A   Clear
3:53 PM 46.0 °F - 26.1 °F 46% 30.32 in 10.0 mi Calm Calm - N/A   Clear
4:53 PM 43.0 °F - 27.0 °F 53% 30.32 in 10.0 mi Calm Calm - N/A   Clear
5:53 PM 39.9 °F - 28.0 °F 63% 30.34 in 10.0 mi Calm Calm - N/A   Clear
6:53 PM 37.0 °F - 27.0 °F 67% 30.35 in 10.0 mi Calm Calm - N/A   Clear
7:53 PM 34.0 °F - 27.0 °F 75% 30.37 in 10.0 mi Calm Calm - N/A   Clear
8:53 PM 32.0 °F - 27.0 °F 82% 30.38 in 8.0 mi Calm Calm - N/A   Clear
9:53 PM 30.9 °F - 27.0 °F 85% 30.40 in 9.0 mi Calm Calm - N/A   Clear
10:53 PM 28.9 °F - 26.1 °F 89% 30.41 in 9.0 mi Calm Calm - N/A   Clear
11:53 PM 28.9 °F - 26.1 °F 89% 30.43 in 10.0 mi Calm Calm - N/A   Clear